Joliet, IL

5:50 PM CDT on March 25, 2017 (GMT -0500)
Joliet Regional

Weather History for KJOT - September, 2013

Change the Weather History Date:

Tuesday, September 24, 2013

  Actual Average (KARR) Record (KARR)
Temperature  
Mean Temperature 60 °F -  
Max Temperature 73 °F 69 °F 92 °F (2007)
Min Temperature 48 °F 44 °F 29 °F (2012)
Degree Days  
Heating Degree Days 4    
Growing Degree Days 10 (Base 50)    
Moisture  
Dew Point 47 °F    
Average Humidity 64    
Maximum Humidity 87    
Minimum Humidity 34    
Precipitation  
Precipitation 0.00 in - - ()
Sea Level Pressure  
Sea Level Pressure 30.00 in    
Wind  
Wind Speed 8 mph (East)    
Max Wind Speed 12 mph    
Max Gust Speed 18 mph    
Visibility 10 miles    
Events      
Averages and records for this station are not official NWS values.
T = Trace of Precipitation, MM = Missing Value Source: NWS Daily Summary

Daily Weather History Graph

Daily Weather History Graph

Search for Another Location

Airport or City:

Trip Planner

Search our weather history database for the weather conditions in past years. The results will help you decide how hot, cold, wet, or windy it might be!

Date:

Astronomy

Sep. 24, 2013 Rise Set
Actual Time 6:42 AM CDT 6:46 PM CDT
Civil Twilight 6:14 AM CDT 7:13 PM CDT
Nautical Twilight 5:42 AM CDT 7:45 PM CDT
Astronomical Twilight 5:09 AM CDT 8:18 PM CDT
Moon 9:59 PM CDT (9/24) 12:00 PM CDT (9/24)
Length of Visible Light 12h 58m
Length of Day
12h 03m
Waning Gibbous, 73% of the Moon is Illuminated
Sep 24
Waning Gibbous
Sep 26
Last Quarter
Oct 4
New
Oct 11
First Quarter
Oct 18
Full

Hourly Weather History & Observations

Time (CDT) Temp. Dew Point Humidity Pressure Visibility Wind Dir Wind Speed Gust Speed Precip Events Conditions
12:15 AM 55.8 °F 45.5 °F 68% 30.04 in 1.8 mi ESE 10.4 mph - N/A   Haze
12:35 AM 55.6 °F 45.5 °F 69% 30.04 in 1.2 mi ESE 8.1 mph - N/A   Haze
12:55 AM 55.4 °F 45.1 °F 68% 30.04 in 1.2 mi ESE 10.4 mph - N/A   Haze
1:15 AM 54.9 °F 45.0 °F 69% 30.04 in 10.0 mi ESE 9.2 mph 17.3 mph N/A   Clear
1:35 AM 54.3 °F 45.0 °F 71% 30.05 in 10.0 mi ESE 9.2 mph - N/A   Clear
1:55 AM 53.2 °F 45.1 °F 74% 30.06 in 10.0 mi ESE 8.1 mph - N/A   Clear
2:35 AM 52.7 °F 45.1 °F 75% 30.05 in 10.0 mi SE 9.2 mph - N/A   Clear
2:55 AM 52.3 °F 45.0 °F 76% 30.05 in 10.0 mi SE 8.1 mph - N/A   Clear
3:15 AM 51.8 °F 45.0 °F 77% 30.06 in 10.0 mi SE 6.9 mph - N/A   Clear
3:35 AM 51.8 °F 45.1 °F 78% 30.06 in 10.0 mi SE 6.9 mph - N/A   Clear
3:55 AM 50.9 °F 45.0 °F 80% 30.06 in 10.0 mi SE 8.1 mph - N/A   Clear
4:35 AM 50.5 °F 44.8 °F 81% 30.07 in 10.0 mi SE 4.6 mph - N/A   Clear
4:55 AM 49.8 °F 44.6 °F 82% 30.06 in 10.0 mi SE 4.6 mph - N/A   Clear
5:15 AM 49.1 °F 44.6 °F 84% 30.07 in 10.0 mi ESE 3.5 mph - N/A   Clear
5:35 AM 49.1 °F 44.6 °F 84% 30.07 in 10.0 mi SE 3.5 mph - N/A   Clear
5:55 AM 48.9 °F 44.4 °F 84% 30.07 in 10.0 mi ESE 4.6 mph - N/A   Clear
6:15 AM 48.6 °F 44.4 °F 86% 30.07 in 10.0 mi ESE 4.6 mph - N/A   Clear
6:35 AM 48.6 °F 44.4 °F 86% 30.07 in 10.0 mi ESE 5.8 mph - N/A   Clear
6:55 AM 48.2 °F 44.4 °F 87% 30.06 in 10.0 mi ESE 4.6 mph - N/A   Clear
7:15 AM 48.9 °F 44.8 °F 86% 30.07 in 10.0 mi ESE 5.8 mph - N/A   Clear
7:35 AM 50.2 °F 45.3 °F 83% 30.07 in 10.0 mi SE 9.2 mph - N/A   Clear
7:55 AM 51.6 °F 45.5 °F 80% 30.06 in 10.0 mi SE 5.8 mph - N/A   Clear
8:15 AM 52.9 °F 46.2 °F 78% 30.06 in 10.0 mi SE 4.6 mph - N/A   Clear
8:35 AM 54.5 °F 46.6 °F 75% 30.06 in 10.0 mi SE 6.9 mph - N/A   Clear
8:55 AM 56.1 °F 46.8 °F 71% 30.05 in 10.0 mi SE 6.9 mph - N/A   Clear
9:15 AM 57.9 °F 47.3 °F 68% 30.06 in 10.0 mi SSE 6.9 mph - N/A   Clear
9:35 AM 59.5 °F 48.4 °F 67% 30.05 in 10.0 mi SE 4.6 mph - N/A   Clear
9:55 AM 61.0 °F 48.6 °F 64% 30.04 in 10.0 mi SE 6.9 mph - N/A   Clear
10:15 AM 62.4 °F 48.7 °F 61% 30.04 in 10.0 mi ESE 6.9 mph - N/A   Clear
10:35 AM 64.0 °F 49.1 °F 58% 30.03 in 10.0 mi East 9.2 mph - N/A   Clear
10:55 AM 65.8 °F 49.1 °F 55% 30.03 in 10.0 mi ESE 9.2 mph - N/A   Clear
11:15 AM 67.6 °F 48.7 °F 51% 30.02 in 10.0 mi East 11.5 mph - N/A   Clear
11:35 AM 68.7 °F 47.3 °F 46% 30.02 in 10.0 mi ESE 9.2 mph - N/A   Clear
11:55 AM 69.3 °F 47.3 °F 45% 30.01 in 10.0 mi East 11.5 mph - N/A   Clear
12:15 PM 69.8 °F 47.3 °F 45% 30.00 in 10.0 mi ESE 10.4 mph - N/A   Clear
12:55 PM 71.1 °F 46.4 °F 41% 29.99 in 10.0 mi ESE 9.2 mph 16.1 mph N/A   Clear
1:15 PM 70.9 °F 45.3 °F 40% 29.99 in 10.0 mi East 5.8 mph - N/A   Clear
1:35 PM 71.8 °F 45.7 °F 39% 29.98 in 10.0 mi East 4.6 mph 9.2 mph N/A   Clear
1:55 PM 72.5 °F 45.1 °F 37% 29.97 in 10.0 mi SE 6.9 mph 17.3 mph N/A   Clear
2:15 PM 72.7 °F 45.1 °F 37% 29.96 in 10.0 mi East 6.9 mph - N/A   Clear
2:35 PM 73.2 °F 45.9 °F 38% 29.95 in 10.0 mi East 9.2 mph - N/A   Clear
2:55 PM 73.2 °F 45.3 °F 37% 29.94 in 10.0 mi ENE 11.5 mph - N/A   Clear
3:15 PM 73.4 °F 43.7 °F 34% 29.95 in 10.0 mi East 5.8 mph 10.4 mph N/A   Clear
3:35 PM 73.2 °F 43.9 °F 35% 29.95 in 10.0 mi ESE 8.1 mph - N/A   Clear
3:55 PM 73.2 °F 44.8 °F 36% 29.95 in 10.0 mi East 8.1 mph - N/A   Clear
4:15 PM 73.4 °F 44.1 °F 35% 29.94 in 10.0 mi East 8.1 mph - N/A   Clear
4:35 PM 72.9 °F 44.6 °F 36% 29.94 in 10.0 mi East 8.1 mph - N/A   Clear
4:55 PM 72.0 °F 45.7 °F 39% 29.93 in 10.0 mi ENE 9.2 mph 18.4 mph N/A   Clear
5:15 PM 71.6 °F 46.0 °F 40% 29.93 in 10.0 mi ENE 11.5 mph - N/A   Clear
5:35 PM 69.8 °F 48.7 °F 47% 29.93 in 10.0 mi ENE 10.4 mph - N/A   Clear
5:55 PM 68.0 °F 49.1 °F 51% 29.94 in 10.0 mi ENE 10.4 mph - N/A   Clear
6:15 PM 66.2 °F 49.1 °F 54% 29.95 in 10.0 mi ENE 10.4 mph - N/A   Clear
6:35 PM 65.1 °F 49.3 °F 56% 29.95 in 10.0 mi NE 5.8 mph - N/A   Clear
6:55 PM 63.3 °F 49.6 °F 61% 29.95 in 10.0 mi ENE 5.8 mph - N/A   Clear
7:15 PM 62.6 °F 50.0 °F 63% 29.95 in 10.0 mi NE 8.1 mph - N/A   Clear
7:35 PM 62.1 °F 50.0 °F 65% 29.95 in 10.0 mi NE 8.1 mph - N/A   Clear
7:55 PM 61.7 °F 50.2 °F 66% 29.95 in 10.0 mi NE 9.2 mph - N/A   Clear
8:15 PM 61.0 °F 50.5 °F 68% 29.95 in 10.0 mi ENE 9.2 mph - N/A   Clear
8:35 PM 60.6 °F 50.9 °F 70% 29.95 in 10.0 mi NE 8.1 mph - N/A   Clear
8:55 PM 59.9 °F 51.1 °F 73% 29.95 in 10.0 mi NE 8.1 mph - N/A   Clear
9:15 PM 59.9 °F 51.6 °F 74% 29.94 in 10.0 mi NE 6.9 mph - N/A   Clear
9:35 PM 59.5 °F 51.8 °F 76% 29.95 in 10.0 mi NE 5.8 mph - N/A   Clear
9:55 PM 58.6 °F 52.0 °F 79% 29.95 in 10.0 mi NE 6.9 mph - N/A   Clear
10:15 PM 58.3 °F 52.0 °F 80% 29.95 in 10.0 mi ENE 5.8 mph - N/A   Clear
10:35 PM 58.5 °F 52.3 °F 80% 29.95 in 10.0 mi NE 4.6 mph - N/A   Clear
10:55 PM 57.6 °F 52.0 °F 82% 29.94 in 10.0 mi NE 4.6 mph - N/A   Clear
11:15 PM 57.4 °F 52.2 °F 83% 29.94 in 10.0 mi NE 4.6 mph - N/A   Clear
11:35 PM 57.4 °F 51.8 °F 82% 29.95 in 10.0 mi NNE 3.5 mph - N/A   Clear
11:55 PM 54.7 °F 50.4 °F 85% 29.94 in 10.0 mi NE 4.6 mph - N/A   Clear